Weather History for Lakehurst NAS, NJ

Change the Weather History Date:

Monday, April 14, 2014

  Actual Average Record
Temperature  
Mean Temperature 69 °F -  
Max Temperature 63 °F 57 °F 71 °F (1998)
Min Temperature 61 °F 41 °F 39 °F (2012)
Cooling Degree Days 4    
Growing Degree Days 19 (Base 50)    
Moisture  
Dew Point 55 °F    
Average Humidity 64    
Maximum Humidity 81    
Minimum Humidity 43    
Precipitation  
Precipitation 0.00 in - - ()
Sea Level Pressure  
Sea Level Pressure 29.96 in    
Wind  
Wind Speed 15 mph (SSW)    
Max Wind Speed 23 mph    
Max Gust Speed 33 mph    
Averages and records for this station are not official NWS values.
T = Trace of Precipitation, MM = Missing Value Source: NWS Daily Summary

Daily Weather History Graph

Daily Weather History Graph

Search for Another Location

Airport:

Trip Planner

Search our weather history database for the weather conditions in past years. The results will help you decide how hot, cold, wet, or windy it might be!

Date:

Astronomy

Apr. 14, 2014 Rise Set
Actual Time 6:21 AM EDT 7:34 PM EDT
Civil Twilight 5:53 AM EDT 8:02 PM EDT
Nautical Twilight 5:19 AM EDT 8:36 PM EDT
Astronomical Twilight 4:44 AM EDT 9:11 PM EDT
Moon 7:11 PM EDT (4/14) 5:51 AM EDT (4/14)
Length of Visible Light 14h 09m
Length of Day
13h 13m
Full, 100% of the Moon is Illuminated
Apr 14
Full
Apr 15
Full
Apr 22
Last Quarter
Apr 29
New
May 6
First Quarter

Hourly Weather History & Observations

Time (EDT) Temp. Dew Point Humidity Pressure Visibility Wind Dir Wind Speed Gust Speed Precip Events Conditions
12:00 AM 64.0 °F 55.0 °F 73% 30.03 in - SSW 15.0 mph 21.9 mph N/A   Clear
2:00 AM 63.0 °F 55.0 °F 75% 30.03 in - South 8.1 mph - N/A   Clear
4:00 AM 61.0 °F 54.0 °F 78% 30.02 in - SSW 8.1 mph - N/A   Clear
7:00 AM 61.0 °F 54.0 °F 78% 30.01 in - SSW 11.5 mph 20.7 mph N/A   Clear
8:00 AM 63.0 °F 55.9 °F 78% 30.01 in - SSW 13.8 mph 20.7 mph N/A   Clear
9:00 AM 64.9 °F 57.0 °F 75% 30.02 in - SSW 13.8 mph 21.9 mph N/A   Partly Cloudy
10:00 AM 69.8 °F 57.2 °F 64% 30.01 in - SSW 17.3 mph 28.8 mph N/A   Mostly Cloudy
10:06 AM 70.0 °F 57.9 °F 65% 30.01 in - SSW 16.1 mph 21.9 mph N/A   Mostly Cloudy
10:28 AM 71.6 °F 57.2 °F 60% 30.01 in - SW 19.6 mph 33.4 mph N/A   Mostly Cloudy
11:00 AM 75.0 °F 55.9 °F 51% 30.00 in - SSW 20.7 mph 25.3 mph N/A   Overcast
12:00 PM 75.0 °F 54.0 °F 48% 29.98 in - SSW 23.0 mph 32.2 mph N/A   Partly Cloudy
1:00 PM 75.0 °F 53.1 °F 46% 29.96 in - SW 17.3 mph 29.9 mph N/A   Mostly Cloudy
3:00 PM 77.0 °F 53.1 °F 43% 29.92 in - South 19.6 mph 28.8 mph N/A   Mostly Cloudy
4:00 PM 75.9 °F 53.1 °F 45% 29.90 in - South 19.6 mph 31.1 mph N/A   Clear
5:00 PM 73.9 °F 53.1 °F 48% 29.89 in - South 21.9 mph 32.2 mph N/A   Clear
6:00 PM 71.1 °F 52.0 °F 51% 29.89 in - SSW 19.6 mph 31.1 mph N/A   Clear
7:00 PM 68.0 °F 54.0 °F 61% 29.90 in - South 10.4 mph 27.6 mph N/A   Clear
8:00 PM 66.0 °F 55.0 °F 68% 29.90 in - South 16.1 mph 24.2 mph N/A   Clear
9:00 PM 64.0 °F 55.9 °F 75% 29.91 in - South 12.7 mph 25.3 mph N/A   Clear
10:00 PM 63.0 °F 57.0 °F 81% 29.89 in - South 15.0 mph 21.9 mph N/A   Clear
11:00 PM 63.0 °F 57.0 °F 81% 29.87 in - South 13.8 mph 20.7 mph N/A   Clear